Vorticity
4 5 6 6 6 6 5 7 1 1 3 6 6 7 9 10 12 9 6 6 6 5 4 4 6 3 4 5 4 8 13 8 3 5 4 3 -3 -21 18 14 1 7 -2
8 9 9 7 6 6 5 8 14 18 20 18 16 14 11 10 9 10 10 10 9 7 6 7 6 3 3 4 6 4 6 11 11 5 4 5 1 11 -3 -5 5 3 4
6 8 11 11 13 15 17 17 15 13 10 8 8 7 5 5 5 6 6 8 10 11 9 8 7 6 7 6 4 4 5 3 9 14 7 5 2 4 4 8 -2 1 5
13 14 16 17 14 13 12 11 9 6 4 2 2 11 27 30 30 32 27 23 16 4 4 11 11 9 7 6 6 5 5 4 2 3 11 16 8 4 2 5 6 5 3
12 12 11 10 9 7 5 4 2 3 15 38 13 10 18 17 22 24 25 39 14 14 25 17 15 8 13 9 8 7 4 6 7 2 0 3 10 16 11 3 4 5 5
10 8 7 5 4 3 4 17 32 24 1 12 13 11 8 10 17 24 20 12 36 21 17 15 24 13 12 9 12 11 6 6 6 7 6 4 2 2 4 9 13 11 8
4 2 4 14 30 44 32 9 6 11 14 8 12 -1 20 40 32 19 41 42 25 20 21 19 10 16 28 18 7 7 15 9 5 6 6 7 6 3 3 3 2 3 7
26 43 31 18 13 14 -4 6 13 21 8 12 18 25 7 21 18 22 47 50 46 37 29 26 18 13 12 14 25 14 5 13 14 9 5 5 5 5 5 4 4 6 4
18 10 7 11 15 9 5 8 25 22 12 9 11 1 24 28 22 15 16 19 20 29 48 46 25 25 17 14 9 28 23 3 7 11 12 11 8 6 5 6 5 7 6
7 3 10 15 13 16 16 26 12 17 16 17 -1 15 5 24 14 31 40 26 16 15 17 19 44 42 24 17 2 12 25 34 10 1 7 10 7 5 3 1 2 5 7
2 9 18 26 19 19 31 35 31 32 25 19 21 22 4 9 1 8 7 33 47 50 23 17 18 20 28 30 21 16 18 19 19 24 18 11 6 4 5 6 6 6 8
1 24 26 2 -6 12 15 10 16 23 24 7 4 -5 8 4 -9 7 4 8 1 11 36 55 45 18 15 19 16 16 15 15 16 19 22 20 20 20 17 14 12 10 8
44 19 -3 9 8 -7 -6 -11 6 5 -7 14 10 9 -2 3 9 6 5 3 4 -2 -0 5 14 42 59 72 46 19 11 12 14 19 27 30 34 36 39 40 37 27 22
18 12 -1 6 0 3 7 11 5 5 8 4 4 2 4 -0 -2 -1 -1 2 3 4 5 5 8 3 2 3 11 17 31 45 52 58 52 48 45 49 48 52 51 46 34
9 2 6 3 4 8 5 4 2 2 -1 3 6 5 3 2 1 3 3 2 2 3 3 3 1 1 3 2 3 4 3 1 3 5 7 8 11 11 9 7 7 9 24
6 7 -5 6 9 5 6 6 5 4 4 4 4 4 6 8 7 6 5 4 4 5 6 8 8 7 7 6 4 3 3 3 3 3 2 2 1 0 3 7 4 3 8
8 3 5 8 6 4 1 1 5 0 3 8 8 5 2 3 3 3 4 5 5 5 6 6 6 6 7 8 9 9 9 7 6 5 4 3 2 3 3 3 1 7 11
4 4 6 7 4 2 2 2 6 7 5 4 3 1 1 2 3 5 6 7 8 8 8 8 8 7 6 6 6 5 5 6 6 7 7 7 7 7 7 6 5 4 3
9 8 5 5 5 6 7 4 3 5 4 2 1 1 2 4 5 5 6 7 8 8 9 9 9 8 8 8 7 6 6 5 5 5 5 5 4 4 4 6 6 6 8
3 3 4 3 2 3 2 3 4 3 1 1 1 2 4 6 6 6 8 9 8 7 7 6 5 7 8 7 6 5 5 6 6 5 5 6 7 7 6 6 7 7 7
3 0 5 5 2 1 3 5 3 2 4 3 4 5 7 7 9 10 11 10 8 8 8 9 9 8 9 6 5 5 4 6 7 7 5 5 5 5 5 8 7 7 5
0 4 5 2 1 4 4 3 3 4 4 4 6 8 8 8 9 9 7 7 8 10 11 7 6 6 8 6 7 7 7 7 4 5 7 7 7 8 9 13 15 11 7
5 4 6 2 4 2 1 2 4 6 6 7 11 10 9 8 7 7 7 9 10 8 7 10 5 7 9 8 9 7 4 4 6 6 6 7 6 6 9 9 12 14 19
6 5 4 3 1 1 4 5 7 8 9 9 8 6 7 7 7 7 7 7 9 12 16 4 6 7 9 14 7 3 6 6 7 7 8 8 9 8 6 9 10 10 11
1 1 1 2 4 5 7 7 8 8 6 5 5 5 5 5 4 6 6 7 20 21 4 5 6 9 15 10 2 5 6 7 8 8 5 10 13 10 9 13 12 15 19
4 5 5 6 7 7 8 7 6 6 7 7 6 6 7 6 7 6 8 7 20 5 6 3 7 9 17 3 5 6 7 5 9 10 9 10 9 10 12 17 20 20 23
Height
5799 5799 5800 5799 5799 5798 5798 5796 5796 5794 5793 5791 5790 5789 5788 5785 5783 5780 5777 5776 5776 5776 5777 5778 5780 5781 5784 5786 5787 5788 5790 5792 5794 5795 5798 5799 5797 5796 5795 5794 5799 5801 5804
5791 5790 5789 5789 5788 5786 5785 5784 5782 5781 5778 5777 5776 5774 5772 5770 5767 5764 5761 5760 5758 5758 5759 5761 5764 5766 5768 5772 5774 5775 5777 5779 5782 5783 5786 5787 5787 5789 5788 5785 5789 5793 5794
5782 5780 5778 5777 5776 5775 5773 5772 5771 5769 5767 5765 5763 5760 5756 5753 5750 5746 5742 5738 5737 5738 5739 5741 5745 5748 5751 5756 5759 5762 5763 5766 5768 5771 5772 5774 5777 5777 5777 5779 5781 5783 5785
5771 5769 5768 5766 5765 5764 5763 5762 5759 5757 5755 5751 5748 5745 5741 5735 5729 5725 5722 5718 5715 5715 5718 5722 5725 5730 5734 5739 5743 5746 5750 5752 5755 5757 5760 5761 5764 5768 5768 5768 5770 5773 5775
5761 5761 5760 5758 5756 5755 5752 5750 5748 5745 5741 5737 5733 5730 5723 5715 5708 5703 5699 5695 5691 5691 5694 5700 5705 5711 5716 5722 5726 5730 5734 5737 5740 5743 5747 5750 5750 5751 5754 5759 5762 5762 5763
5753 5752 5751 5749 5747 5744 5742 5740 5736 5732 5731 5728 5723 5717 5709 5699 5689 5680 5675 5672 5671 5670 5672 5677 5683 5689 5697 5703 5708 5714 5718 5722 5725 5729 5732 5735 5738 5739 5740 5742 5746 5750 5753
5746 5744 5743 5740 5738 5735 5732 5730 5728 5724 5722 5720 5716 5709 5698 5685 5672 5663 5654 5650 5649 5651 5653 5657 5663 5670 5676 5684 5691 5697 5703 5707 5710 5714 5717 5720 5724 5725 5725 5727 5731 5734 5740
5737 5736 5734 5733 5731 5729 5726 5723 5720 5717 5717 5715 5711 5703 5692 5678 5665 5654 5644 5638 5636 5635 5636 5640 5644 5652 5659 5666 5672 5678 5684 5690 5695 5699 5702 5705 5709 5711 5713 5713 5714 5717 5722
5730 5730 5730 5729 5728 5725 5719 5717 5715 5713 5711 5710 5705 5698 5688 5676 5665 5654 5645 5638 5632 5628 5626 5626 5630 5636 5643 5649 5655 5661 5667 5672 5678 5682 5686 5691 5694 5696 5698 5699 5699 5699 5704
5728 5729 5728 5726 5723 5720 5716 5713 5710 5708 5706 5704 5700 5694 5686 5675 5665 5654 5645 5637 5631 5627 5624 5623 5623 5627 5631 5637 5642 5647 5650 5656 5662 5667 5672 5676 5679 5681 5683 5684 5684 5685 5686
5726 5726 5725 5723 5721 5719 5715 5709 5705 5704 5703 5702 5697 5691 5685 5677 5668 5659 5650 5640 5632 5627 5623 5622 5622 5624 5628 5632 5635 5637 5640 5644 5648 5652 5657 5661 5663 5666 5667 5667 5668 5670 5669
5721 5721 5722 5722 5721 5718 5714 5708 5705 5703 5703 5701 5696 5691 5685 5679 5672 5664 5657 5649 5642 5635 5629 5624 5621 5622 5623 5626 5629 5631 5633 5636 5639 5642 5645 5647 5649 5651 5651 5651 5652 5652 5651
5717 5718 5720 5720 5719 5717 5713 5710 5708 5706 5704 5701 5697 5692 5687 5681 5676 5670 5664 5657 5651 5645 5640 5635 5630 5627 5625 5623 5624 5625 5626 5628 5630 5631 5633 5634 5636 5636 5636 5636 5636 5633 5631
5714 5716 5718 5718 5717 5715 5713 5712 5710 5708 5705 5702 5698 5693 5689 5684 5679 5674 5668 5663 5658 5653 5648 5643 5639 5635 5633 5630 5628 5627 5627 5626 5626 5626 5626 5626 5626 5625 5624 5622 5620 5617 5614
5713 5715 5716 5716 5715 5714 5713 5712 5710 5708 5705 5702 5698 5694 5690 5685 5681 5677 5671 5666 5661 5657 5652 5648 5645 5641 5638 5635 5633 5632 5631 5630 5629 5628 5627 5626 5624 5622 5619 5616 5612 5607 5601
5713 5713 5714 5714 5713 5713 5712 5711 5709 5707 5704 5701 5697 5694 5690 5686 5682 5677 5672 5667 5663 5658 5653 5649 5646 5642 5639 5636 5634 5632 5631 5629 5627 5626 5624 5623 5620 5617 5614 5609 5604 5598 5590
5711 5712 5712 5712 5712 5711 5711 5710 5708 5706 5703 5699 5696 5693 5689 5685 5681 5676 5672 5667 5663 5658 5654 5650 5646 5642 5639 5636 5634 5631 5629 5627 5625 5622 5620 5617 5615 5611 5606 5601 5596 5590 5583
5709 5710 5710 5710 5709 5709 5708 5708 5706 5703 5700 5697 5694 5691 5687 5683 5679 5674 5670 5665 5661 5657 5652 5649 5645 5642 5639 5636 5633 5630 5627 5624 5621 5618 5615 5612 5608 5603 5599 5594 5588 5582 5576
5709 5708 5708 5708 5707 5707 5706 5705 5703 5700 5697 5694 5691 5688 5684 5679 5675 5670 5666 5661 5657 5653 5649 5645 5642 5639 5635 5632 5629 5626 5623 5619 5616 5612 5608 5604 5600 5595 5591 5586 5579 5574 5568
5706 5706 5706 5705 5705 5704 5703 5701 5699 5696 5694 5691 5688 5684 5679 5675 5670 5666 5662 5657 5653 5649 5645 5642 5638 5635 5631 5627 5624 5620 5616 5613 5610 5606 5602 5598 5594 5588 5583 5577 5572 5567 5561
5703 5703 5702 5702 5701 5699 5698 5696 5694 5692 5689 5687 5683 5679 5675 5670 5665 5661 5657 5654 5650 5646 5642 5638 5634 5630 5626 5622 5618 5614 5610 5606 5602 5599 5595 5590 5585 5580 5574 5568 5563 5558 5552
5698 5698 5697 5696 5695 5694 5692 5690 5688 5685 5682 5679 5676 5672 5668 5664 5660 5656 5651 5647 5644 5640 5635 5631 5627 5623 5619 5615 5612 5608 5604 5600 5595 5590 5584 5579 5573 5568 5562 5556 5551 5546 5540
5693 5692 5692 5690 5688 5688 5686 5683 5680 5677 5674 5671 5668 5664 5661 5657 5652 5648 5644 5640 5637 5632 5628 5624 5621 5617 5613 5608 5603 5600 5596 5591 5586 5580 5574 5568 5563 5558 5551 5543 5537 5531 5526
5686 5686 5685 5683 5681 5679 5677 5674 5670 5668 5665 5662 5659 5656 5652 5648 5644 5640 5636 5632 5628 5624 5620 5617 5612 5608 5603 5599 5594 5590 5585 5579 5574 5569 5563 5557 5550 5543 5536 5530 5523 5516 5510
5678 5678 5677 5675 5672 5668 5667 5665 5662 5659 5656 5654 5650 5646 5643 5638 5634 5630 5627 5623 5619 5615 5611 5607 5603 5598 5594 5589 5585 5580 5575 5569 5564 5558 5553 5546 5539 5531 5522 5514 5507 5500 5494
5668 5667 5666 5664 5661 5658 5656 5653 5650 5650 5647 5644 5639 5635 5631 5627 5623 5619 5616 5612 5608 5605 5600 5596 5592 5587 5583 5579 5575 5569 5565 5559 5554 5547 5541 5533 5525 5517 5508 5499 5491 5484 5479